TIROS 10

Satellite information

Favourite Embed

Satellite Type and Status

PAYLOADIN ORBIT

Key statistics

Satellite TIROS 10 at a glance.

Uptime

21920

Days in orbit

Revolutions

≈ 14.4

Per day

Orbit

SSO

Sun Synchronous Orbit

Inclination

98.5

Latest

Satellite identification and parameters

Extended collection of information and parameters for TIROS 10.

Object identification

Identified? True

Debris? False

Object name: TIROS 10

International designator: 1965-051A

Object number (NORAD): 1430

Object ID (CCSDS): 1430

Country: UNITED STATES OF AMERICA (US)

Current information (Y/N): Y

RCS size: MEDIUM

Orbital parameters

Period: 99.901 minutes

Inclination: 98.4708 deg

SMA: 7131.939 km

Apoapsis: 793.849 km

Periapsis: 713.76 km

RAAN: 303.9069 deg

Eccentricy: 0.0056148

Argument of periapsis: 38.7842 deg

Mean anomaly: 321.7356 deg

Mean motion: 14.41422467 rev/day

Mean motion (dot): 0.00000102 rev/day2

B* drag term: 0.000044379 1/REarth

Two-line elements (TLE)

Creation date: July 6, 2025, 6:05 p.m.

Reference frame: TEME

Reference center: EARTH

Epoch: July 6, 2025, 7:23 a.m. UTC

TLE line 0: 0 TIROS 10

TLE line 1: 1 01430U 65051A 25187.30803822 .00000102 00000-0 44379-4 0 9998

TLE line 2: 2 01430 98.4708 303.9069 0056148 38.7842 321.7356 14.41422467146083

Live tracking on map

Real-time ground track for satellite TIROS 10.

In-orbit conjunctions

A list of the most updated potential collisions computed for object TIROS 10.

Target Orbit TCA Probability of collision Miss distance Type
FENGYUN 1C DEB SSO 2025-06-22 18:49:11 0.01069631 22.0 (m) DEBRIS
DMSP 5D-2 F13 DEB SSO 2025-03-03 04:49:35 0.0001000835 649.0 (m) DEBRIS
CZ-6A DEB LEO 2025-02-21 01:26:33 0.0004848053 451.0 (m) DEBRIS
CZ-6A DEB LEO 2025-02-16 16:26:31 0.02918008 28.0 (m) DEBRIS
FENGYUN 1C DEB SSO 2025-02-16 03:12:02 0.000195359 443.0 (m) DEBRIS

Associated space launch

NASA's TIROS (Television & Infra-Red Observation Satellite) program was the first experimental weathersatellite program.

TIROS 10 was lifted into orbit during the mission ‘Thor Delta C | Tiros 10’, on board a Thor Delta C space rocket.

The launch took place on July 2, 1965, 4:07 a.m. from Space Launch Complex 17B.

For more information about the launch, click the button.

Launch to space Thor Delta C | Tiros 10
Thor Delta C | Tiros 10

Agency: N/A

Status: Launch Successful

Launch date: July 2, 1965, 4:07 a.m. UTC

Rocket: Thor Delta C

Launch pad: Space Launch Complex 17B

Location: Cape Canaveral SFS, FL, USA

...

Latest news about this satellite

There are no fresh news available about this satellite. Check back as we update our databases every day.


Newsletter sign-up

Weekly statistics, charts and insights to help you stay on top of the space industry.